Weather History for Washington, GA

Change the Weather History Date:

Wednesday, March 27, 2013

  Actual Average (KDBN) Record (KDBN)
Temperature  
Mean Temperature 46 °F -  
Max Temperature 59 °F 71 °F 86 °F (1949)
Min Temperature 32 °F 43 °F 21 °F (1955)
Degree Days  
Heating Degree Days 20    
Moisture  
Dew Point 21 °F    
Average Humidity 46    
Maximum Humidity 81    
Minimum Humidity 16    
Precipitation  
Precipitation 0.00 in - - ()
Sea Level Pressure  
Sea Level Pressure 30.24 in    
Wind  
Wind Speed 6 mph (WNW)    
Max Wind Speed 13 mph    
Max Gust Speed 18 mph    
Visibility 7 miles    
Events      
Averages and records for this station are not official NWS values.
T = Trace of Precipitation, MM = Missing Value Source: NWS Daily Summary

Daily Weather History Graph

Daily Weather History Graph

Search for Another Location

Airport:

Trip Planner

Search our weather history database for the weather conditions in past years. The results will help you decide how hot, cold, wet, or windy it might be!

Date:

Astronomy

Mar. 27, 2013 Rise Set
Actual Time 7:25 AM EDT 7:48 PM EDT
Civil Twilight 7:00 AM EDT 8:13 PM EDT
Nautical Twilight 6:30 AM EDT 8:42 PM EDT
Astronomical Twilight 6:01 AM EDT 9:12 PM EDT
Moon 8:26 PM EDT (3/27) 7:17 AM EDT (3/27)
Length of Visible Light 13h 13m
Length of Day
12h 23m
Full, 100% of the Moon is Illuminated
Mar 27
Full
Apr 3
Last Quarter
Apr 10
New
Apr 18
First Quarter
Apr 25
Full

Hourly Weather History & Observations

Time (EDT) Temp. Windchill Dew Point Humidity Pressure Visibility Wind Dir Wind Speed Gust Speed Precip Events Conditions
12:15 AM 35.6 °F 31.7 °F 24.8 °F 65% 30.23 in 7.0 mi WNW 4.6 mph - N/A   Clear
12:35 AM 35.6 °F 30.7 °F 24.8 °F 65% 30.23 in 7.0 mi WNW 5.8 mph - N/A   Clear
12:55 AM 35.6 °F 30.7 °F 24.8 °F 65% 30.24 in 7.0 mi WNW 5.8 mph - N/A   Clear
1:15 AM 35.6 °F 30.7 °F 24.8 °F 65% 30.23 in 7.0 mi WNW 5.8 mph - N/A   Clear
1:35 AM 33.8 °F 28.6 °F 23.0 °F 65% 30.23 in 10.0 mi WNW 5.8 mph - N/A   Clear
1:55 AM 33.8 °F 29.6 °F 24.8 °F 70% 30.23 in 10.0 mi WNW 4.6 mph - N/A   Clear
2:15 AM 33.8 °F 28.6 °F 24.8 °F 70% 30.23 in 7.0 mi WNW 5.8 mph - N/A   Clear
2:35 AM 33.8 °F 29.6 °F 26.6 °F 75% 30.22 in 7.0 mi WNW 4.6 mph - N/A   Clear
2:55 AM 33.8 °F 29.6 °F 26.6 °F 75% 30.22 in 7.0 mi WNW 4.6 mph - N/A   Clear
3:15 AM 33.8 °F 28.6 °F 26.6 °F 75% 30.23 in 7.0 mi WNW 5.8 mph - N/A   Clear
3:35 AM 33.8 °F 29.6 °F 26.6 °F 75% 30.21 in 7.0 mi NW 4.6 mph - N/A   Clear
3:55 AM 33.8 °F 28.6 °F 26.6 °F 75% 30.22 in 7.0 mi WNW 5.8 mph - N/A   Clear
4:15 AM 33.8 °F 28.6 °F 26.6 °F 75% 30.22 in 7.0 mi WNW 5.8 mph - N/A   Clear
4:55 AM 33.8 °F 28.6 °F 26.6 °F 75% 30.22 in 10.0 mi WNW 5.8 mph - N/A   Clear
5:15 AM 33.8 °F 27.7 °F 26.6 °F 75% 30.23 in 7.0 mi WNW 6.9 mph - N/A   Clear
5:35 AM 33.8 °F 27.7 °F 26.6 °F 75% 30.23 in 7.0 mi WNW 6.9 mph - N/A   Clear
5:55 AM 33.8 °F 27.7 °F 26.6 °F 75% 30.24 in 7.0 mi WNW 6.9 mph - N/A   Clear
6:15 AM 33.8 °F 28.6 °F 26.6 °F 75% 30.24 in 7.0 mi WNW 5.8 mph - N/A   Clear
6:35 AM 33.8 °F 28.6 °F 26.6 °F 75% 30.25 in 7.0 mi WNW 5.8 mph - N/A   Clear
6:55 AM 33.8 °F 28.6 °F 26.6 °F 75% 30.26 in 7.0 mi NW 5.8 mph - N/A   Clear
7:15 AM 32.0 °F 25.6 °F 26.6 °F 80% 30.26 in 10.0 mi NW 6.9 mph - N/A   Clear
7:35 AM 32.0 °F 26.4 °F 26.6 °F 80% 30.27 in 7.0 mi NW 5.8 mph - N/A   Clear
7:55 AM 33.8 °F 28.6 °F 28.4 °F 81% 30.28 in 5.0 mi WNW 5.8 mph - N/A   Haze
8:15 AM 33.8 °F 28.6 °F 26.6 °F 75% 30.28 in 7.0 mi NW 5.8 mph - N/A   Clear
8:35 AM 33.8 °F 27.7 °F 24.8 °F 70% 30.28 in 5.0 mi NW 6.9 mph - N/A   Haze
8:55 AM 35.6 °F 30.7 °F 26.6 °F 70% 30.30 in 5.0 mi NW 5.8 mph - N/A   Haze
9:15 AM 37.4 °F 32.8 °F 26.6 °F 65% 30.31 in 7.0 mi NW 5.8 mph - N/A   Clear
9:35 AM 37.4 °F 33.8 °F 23.0 °F 56% 30.31 in 7.0 mi NW 4.6 mph - N/A   Clear
9:55 AM 41.0 °F 37.1 °F 23.0 °F 49% 30.31 in 7.0 mi NNW 5.8 mph - N/A   Clear
10:15 AM 42.8 °F 38.6 °F 21.2 °F 42% 30.31 in 7.0 mi NW 6.9 mph - N/A   Clear
10:35 AM 42.8 °F 41.1 °F 21.2 °F 42% 30.31 in 7.0 mi NW 3.5 mph - N/A   Clear
10:55 AM 44.6 °F 42.2 °F 19.4 °F 37% 30.31 in 7.0 mi NW 4.6 mph - N/A   Clear
11:15 AM 44.6 °F 43.1 °F 17.6 °F 34% 30.31 in 7.0 mi NNW 3.5 mph - N/A   Clear
11:35 AM 44.6 °F 39.2 °F 17.6 °F 34% 30.30 in 7.0 mi West 10.4 mph - N/A   Clear
11:55 AM 46.4 °F 42.4 °F 17.6 °F 32% 30.29 in 7.0 mi West 8.1 mph - N/A   Clear
12:15 PM 46.4 °F 41.5 °F 17.6 °F 32% 30.29 in 7.0 mi WNW 10.4 mph - N/A   Clear
12:35 PM 48.2 °F - 17.6 °F 30% 30.28 in 10.0 mi WNW 4.6 mph - N/A   Clear
12:55 PM 50.0 °F - 17.6 °F 28% 30.28 in 7.0 mi West 11.5 mph - N/A   Clear
1:15 PM 50.0 °F - 17.6 °F 28% 30.28 in 7.0 mi West 6.9 mph - N/A   Clear
1:35 PM 51.8 °F - 17.6 °F 26% 30.27 in 7.0 mi NW 10.4 mph - N/A   Clear
1:55 PM 53.6 °F - 17.6 °F 24% 30.27 in 7.0 mi WNW 4.6 mph - N/A   Clear
2:15 PM 53.6 °F - 17.6 °F 24% 30.26 in 7.0 mi West 6.9 mph - N/A   Clear
2:35 PM 53.6 °F - 17.6 °F 24% 30.25 in 7.0 mi NW 5.8 mph - N/A   Clear
2:55 PM 53.6 °F - 15.8 °F 22% 30.24 in 7.0 mi WSW 11.5 mph - N/A   Clear
3:15 PM 53.6 °F - 14.0 °F 21% 30.23 in 7.0 mi NW 9.2 mph 17.3 mph N/A   Clear
3:35 PM 55.4 °F - 14.0 °F 20% 30.22 in 7.0 mi WNW 9.2 mph 16.1 mph N/A   Clear
3:55 PM 55.4 °F - 14.0 °F 20% 30.22 in 7.0 mi West 8.1 mph - N/A   Clear
4:15 PM 55.4 °F - 14.0 °F 20% 30.21 in 7.0 mi WNW 12.7 mph 18.4 mph N/A   Clear
4:35 PM 55.4 °F - 14.0 °F 20% 30.21 in 7.0 mi WNW 9.2 mph 16.1 mph N/A   Clear
4:55 PM 55.4 °F - 12.2 °F 18% 30.20 in 7.0 mi WNW 6.9 mph 10.4 mph N/A   Clear
5:15 PM 57.2 °F - 14.0 °F 18% 30.20 in 7.0 mi West 9.2 mph - N/A   Clear
5:35 PM 59.0 °F - 14.0 °F 17% 30.19 in 7.0 mi WNW 8.1 mph 16.1 mph N/A   Clear
5:55 PM 59.0 °F - 12.2 °F 16% 30.19 in 7.0 mi WNW 9.2 mph 18.4 mph N/A   Clear
6:15 PM 59.0 °F - 14.0 °F 17% 30.19 in 7.0 mi West 10.4 mph - N/A   Clear
6:35 PM 57.2 °F - 14.0 °F 18% 30.19 in 7.0 mi West 11.5 mph 16.1 mph N/A   Clear
6:55 PM 55.4 °F - 14.0 °F 20% 30.19 in 7.0 mi West 6.9 mph - N/A   Clear
7:15 PM 55.4 °F - 17.6 °F 23% 30.19 in 7.0 mi West 9.2 mph - N/A   Clear
7:35 PM 53.6 °F - 19.4 °F 26% 30.19 in 7.0 mi West 6.9 mph - N/A   Clear
7:55 PM 53.6 °F - 21.2 °F 28% 30.20 in 7.0 mi West 5.8 mph - N/A   Clear
8:15 PM 51.8 °F - 21.2 °F 30% 30.20 in 7.0 mi West 8.1 mph - N/A   Clear
8:35 PM 50.0 °F - 21.2 °F 32% 30.21 in 7.0 mi West 5.8 mph - N/A   Clear
8:55 PM 48.2 °F - 21.2 °F 34% 30.21 in 7.0 mi West 8.1 mph - N/A   Clear
9:15 PM 46.4 °F 42.9 °F 21.2 °F 37% 30.22 in 10.0 mi West 6.9 mph - N/A   Clear
9:35 PM 46.4 °F 43.5 °F 21.2 °F 37% 30.22 in 10.0 mi West 5.8 mph - N/A   Clear
9:55 PM 44.6 °F 40.2 °F 23.0 °F 43% 30.23 in 10.0 mi West 8.1 mph - N/A   Clear
10:15 PM 46.4 °F 42.4 °F 21.2 °F 37% 30.24 in 7.0 mi West 8.1 mph - N/A   Clear
10:35 PM 44.6 °F 40.7 °F 21.2 °F 39% 30.24 in 10.0 mi WNW 6.9 mph - N/A   Clear
10:55 PM 44.6 °F 41.4 °F 21.2 °F 39% 30.26 in 7.0 mi WNW 5.8 mph - N/A   Clear
11:15 PM 42.8 °F 38.6 °F 21.2 °F 42% 30.25 in 7.0 mi WNW 6.9 mph - N/A   Clear
11:35 PM 42.8 °F 39.3 °F 21.2 °F 42% 30.26 in 10.0 mi WNW 5.8 mph - N/A   Clear
11:55 PM 42.8 °F 38.6 °F 21.2 °F 42% 30.26 in 10.0 mi WNW 6.9 mph - N/A   Clear